Temp
61 61 60 60 60 60 60 60 60 60 61 61 61 62 62 61 61 71 71 78 78 71 71 81 87 87 89 87 92 93 78 76 80 84 89 100 93 100 103 99 100 102 101 99 101
60 60 60 60 60 60 60 60 60 60 60 61 61 61 61 61 66 69 79 75 71 71 78 78 81 85 82 84 88 83 76 79 89 92 92 98 95 95 91 92 95 97 99 97 100
59 60 60 60 60 59 59 59 60 60 60 60 60 60 60 64 67 79 70 71 70 72 78 84 85 86 80 86 85 83 75 86 89 93 96 93 93 97 92 89 95 94 98 98 98
59 59 59 59 59 59 59 59 59 60 60 60 59 59 60 67 64 79 70 70 71 78 77 79 81 78 77 77 86 78 84 86 88 93 91 87 93 90 91 93 100 101 100 96 96
59 59 59 59 59 58 58 58 59 59 59 59 59 59 63 66 71 83 71 72 79 80 78 79 77 77 73 79 82 80 82 86 88 90 91 90 86 88 90 96 99 98 97 96 96
58 58 58 58 58 58 58 58 58 58 58 59 59 59 61 58 85 84 82 82 82 81 80 82 80 83 79 79 79 84 83 84 86 87 87 84 84 87 89 94 94 95 95 96 97
57 57 57 57 58 58 58 57 57 57 58 59 60 61 61 68 85 84 83 83 85 83 79 84 85 81 81 76 84 81 76 81 81 83 82 85 78 80 89 91 89 91 92 94 96
57 57 57 57 57 58 58 58 57 58 59 60 61 65 60 84 86 81 83 81 82 84 82 85 86 80 78 82 79 72 74 67 78 80 81 81 69 82 88 87 87 89 91 92 95
57 57 57 57 57 57 57 57 57 59 60 61 63 65 65 73 73 81 82 77 80 80 80 80 78 73 75 69 67 70 62 67 71 83 79 76 70 76 85 88 85 87 89 91 94
57 56 56 56 56 56 56 55 61 60 62 71 72 60 70 72 78 79 82 80 75 75 72 70 71 67 68 67 56 62 65 68 68 79 79 75 72 78 82 86 85 87 88 89 92
57 56 56 56 56 55 58 77 70 65 69 69 74 71 75 79 82 77 79 75 75 71 62 68 62 60 66 68 70 69 68 69 74 79 76 75 75 77 80 80 83 83 84 88 91
56 56 56 55 55 55 61 71 69 68 58 72 74 75 79 79 68 74 82 67 67 62 67 65 59 68 73 72 69 67 64 65 74 77 75 73 73 78 81 81 83 83 83 86 90
55 55 55 55 55 59 72 69 76 75 60 69 76 72 73 75 67 70 76 71 66 63 65 62 68 73 69 66 65 65 63 64 65 73 76 70 67 72 80 83 85 86 85 86 88
55 55 55 55 57 76 74 75 78 75 55 66 66 71 73 74 65 78 79 71 68 62 66 66 73 69 67 64 66 59 70 68 65 65 59 70 55 68 74 77 80 82 84 85 87
54 55 54 53 65 72 72 78 77 70 42 69 69 80 76 68 72 73 80 72 62 64 62 60 64 64 63 65 69 62 70 67 66 63 63 64 60 66 76 73 77 81 84 85 88
54 55 54 70 73 76 78 77 70 52 44 61 68 65 66 70 70 74 73 75 73 65 66 65 72 68 66 67 70 70 66 65 66 63 51 59 61 63 70 74 79 84 85 86 88
54 54 55 69 69 79 77 70 52 47 68 58 59 64 63 61 63 66 64 63 59 50 52 59 61 69 69 58 66 65 57 44 44 48 48 64 60 64 76 81 83 83 85 88 89
53 52 62 74 79 77 71 59 42 57 59 65 61 59 53 59 61 61 57 55 64 60 52 48 45 59 66 59 56 61 57 49 38 45 53 64 56 65 78 82 82 86 87 88 90
51 73 73 78 77 74 62 49 51 54 59 55 55 49 52 58 54 54 54 56 61 61 41 42 47 61 60 65 63 57 54 65 56 58 52 61 66 74 79 79 81 81 84 84 86
59 67 72 76 76 68 56 48 55 60 58 55 44 50 44 49 49 49 49 59 56 55 55 47 37 57 51 53 55 58 62 50 55 39 39 57 60 63 69 72 77 79 81 81 82
61 64 72 78 75 60 50 53 54 59 57 50 46 44 47 46 49 49 51 59 58 49 50 42 40 50 57 48 50 58 49 51 57 57 48 48 59 71 70 75 75 78 77 74 80
62 56 75 75 57 62 53 53 52 55 57 52 51 44 39 42 44 43 46 49 55 48 44 43 41 36 44 53 62 64 58 52 45 44 57 53 46 71 74 75 76 70 68 66 69
57 62 75 71 51 52 55 53 55 52 51 49 45 48 47 36 33 40 45 53 54 47 41 41 38 34 37 53 54 53 59 60 59 58 50 51 50 67 70 71 70 65 64 63 64
59 53 62 64 63 52 49 49 49 56 52 51 49 50 37 41 48 43 49 50 52 52 46 49 37 39 37 41 45 46 55 57 58 47 47 52 57 61 63 63 60 61 59 62 62
61 55 57 48 51 52 53 51 48 46 52 52 47 45 40 35 44 47 48 50 54 52 45 42 34 43 44 47 47 43 49 57 52 57 49 57 56 59 62 58 57 59 59 62 62
54 51 55 49 53 52 51 49 45 46 45 44 42 45 44 39 41 42 49 48 46 53 49 46 35 37 35 45 47 45 48 57 58 60 59 62 57 51 61 60 56 56 59 61 61
57 58 52 46 51 51 50 48 45 43 46 49 47 43 42 46 52 52 53 53 52 48 45 41 36 35 32 40 43 37 50 58 60 62 62 57 63 54 57 55 54 57 59 59 61
MSLP
1021.57 1021.20 1020.83 1020.45 1020.10 1019.75 1019.29 1018.80 1018.39 1018.05 1017.56 1017.21 1016.81 1016.47 1016.08 1015.57 1014.80 1013.12 1010.73 1009.18 1008.94 1009.37 1009.86 1009.10 1007.30 1006.78 1006.35 1005.13 1004.22 1003.56 1001.90 999.10 997.88 996.99 995.76 994.83 995.79 996.84 997.11 996.67 996.73 997.44 997.76 998.88 999.74
1021.55 1021.15 1020.75 1020.41 1020.02 1019.57 1019.14 1018.72 1018.22 1017.73 1017.21 1016.71 1016.42 1016.15 1015.72 1015.31 1013.93 1010.74 1008.29 1008.34 1009.17 1009.67 1009.31 1008.18 1006.52 1005.99 1005.05 1004.12 1003.22 1002.55 1000.78 998.83 998.37 997.29 995.95 995.25 995.92 996.80 997.82 997.54 997.04 997.65 998.62 999.86 1000.00
1021.49 1021.01 1020.59 1020.26 1019.86 1019.43 1019.01 1018.60 1018.20 1017.74 1017.25 1016.64 1016.25 1016.01 1015.64 1014.87 1011.99 1007.21 1008.33 1008.35 1008.98 1009.48 1009.13 1007.69 1006.52 1005.01 1004.22 1003.17 1002.24 1001.69 999.95 999.32 998.29 997.73 996.95 996.41 996.39 997.25 997.12 997.07 997.06 997.51 998.23 999.24 999.78
1021.39 1020.87 1020.40 1019.99 1019.61 1019.20 1018.80 1018.40 1017.91 1017.45 1017.00 1016.63 1016.34 1016.05 1015.56 1014.38 1009.43 1007.25 1008.51 1008.84 1008.89 1008.54 1008.45 1007.35 1006.01 1004.81 1003.41 1002.13 1001.75 1000.93 1000.11 999.81 999.09 997.99 997.79 997.79 997.83 997.74 997.97 997.45 997.11 997.63 998.21 999.65 999.51
1021.31 1020.79 1020.23 1019.61 1019.11 1018.67 1018.27 1017.91 1017.55 1017.15 1016.65 1016.33 1016.02 1015.95 1015.27 1011.93 1008.03 1007.34 1008.46 1008.48 1008.00 1007.55 1006.93 1005.79 1004.97 1004.19 1002.77 1002.20 1001.52 1000.06 999.98 999.81 999.45 998.68 998.05 998.57 998.67 998.24 997.77 998.14 998.09 998.48 998.95 999.61 999.79
1021.18 1020.67 1020.07 1019.41 1018.77 1018.08 1017.55 1017.11 1016.76 1016.45 1016.15 1015.81 1015.55 1015.62 1014.25 1010.18 1006.54 1007.06 1007.42 1007.26 1007.04 1006.41 1005.80 1005.25 1004.11 1003.48 1002.56 1001.67 1000.58 1000.03 999.91 999.57 999.40 998.71 998.86 998.74 998.80 998.89 998.45 998.71 998.66 998.73 998.85 999.19 999.24
1021.04 1020.45 1019.88 1019.31 1018.56 1017.73 1016.92 1016.18 1015.80 1015.69 1015.34 1014.96 1014.79 1015.01 1012.58 1008.05 1006.74 1007.09 1007.18 1006.72 1006.23 1005.96 1005.20 1004.55 1004.20 1003.33 1002.70 1001.77 1000.88 1000.57 999.81 999.11 998.94 999.02 998.65 999.35 998.70 997.92 998.96 998.97 998.89 998.81 998.99 999.10 999.00
1020.94 1020.29 1019.56 1018.86 1018.10 1017.33 1016.48 1015.69 1015.02 1014.65 1014.44 1014.25 1014.22 1013.60 1009.85 1006.31 1006.56 1006.35 1006.63 1006.47 1006.59 1006.15 1005.65 1004.98 1004.31 1003.77 1002.81 1001.95 1001.17 1000.80 999.99 998.51 997.99 998.69 998.65 999.29 996.83 997.73 998.53 998.52 998.22 998.44 998.44 998.48 998.55
1020.86 1020.15 1019.37 1018.62 1017.73 1016.73 1015.77 1014.99 1014.50 1013.82 1013.47 1013.53 1013.17 1011.96 1007.70 1007.17 1006.49 1005.77 1005.85 1005.47 1005.65 1006.17 1006.26 1005.97 1005.51 1004.15 1003.25 1002.02 1001.00 999.95 998.21 997.49 997.90 997.42 997.94 998.59 996.19 997.95 997.96 997.02 997.34 997.86 997.96 997.91 997.87
1020.69 1019.97 1019.13 1018.22 1017.30 1016.29 1015.27 1013.89 1013.23 1013.53 1013.25 1012.26 1011.09 1010.67 1006.67 1004.89 1004.80 1005.19 1005.17 1005.37 1005.23 1005.25 1005.75 1005.56 1004.63 1003.41 1002.49 1000.93 998.73 998.49 997.61 997.24 996.41 996.07 996.69 996.55 996.47 997.51 997.27 996.46 996.41 996.81 997.39 997.29 997.09
1020.37 1019.52 1018.59 1017.68 1016.79 1015.75 1014.53 1010.84 1011.75 1011.44 1010.49 1008.03 1006.19 1005.08 1003.85 1004.38 1004.48 1004.59 1004.97 1005.15 1004.75 1004.51 1004.00 1003.80 1003.17 1000.76 1000.14 1000.25 999.31 998.59 997.36 995.81 995.33 995.60 995.59 995.10 995.60 996.27 996.87 997.05 996.56 996.58 996.79 996.48 996.41
1019.98 1019.10 1018.25 1017.09 1016.30 1015.25 1014.58 1011.78 1011.69 1011.87 1008.66 1006.65 1005.07 1004.16 1003.89 1004.11 1004.00 1003.74 1003.89 1004.43 1003.77 1003.09 1002.98 1002.51 1000.62 1000.11 999.92 999.42 998.99 998.63 997.94 996.58 995.32 995.29 995.59 995.49 995.13 995.56 995.51 995.50 995.97 996.12 996.33 996.27 996.04
1019.95 1018.90 1017.66 1016.44 1015.65 1014.69 1012.62 1012.26 1011.85 1011.20 1008.90 1003.81 1002.68 1003.05 1003.39 1003.80 1003.23 1002.76 1003.12 1003.35 1002.73 1002.00 1001.43 1000.27 998.86 998.89 999.21 999.00 998.43 998.01 997.50 997.03 996.29 995.84 995.53 996.09 995.47 995.05 994.52 994.52 994.69 994.79 995.40 995.95 995.73
1019.66 1018.71 1017.62 1016.05 1015.36 1012.32 1011.15 1011.81 1011.55 1011.24 1008.02 1002.27 1002.45 1002.09 1002.77 1002.81 1002.20 1002.08 1002.30 1002.72 1001.78 1001.09 1000.41 999.37 998.47 998.35 998.33 998.06 998.41 997.17 997.53 997.36 997.03 996.24 994.96 995.91 994.41 993.92 993.88 993.59 993.71 994.05 994.41 994.73 995.13
1019.29 1018.27 1017.30 1016.93 1014.81 1011.87 1012.16 1011.73 1011.71 1011.24 1005.96 1000.94 1001.45 1002.30 1002.03 1002.25 1001.17 1000.59 1001.46 1001.97 1001.39 1000.46 1000.59 999.22 998.63 997.81 997.40 997.10 997.46 997.31 997.67 997.39 997.26 996.70 995.97 994.98 994.07 992.65 992.10 991.71 992.05 992.62 993.24 993.74 994.23
1018.94 1017.96 1017.01 1013.57 1013.16 1012.01 1011.99 1011.72 1011.31 1009.00 1003.41 1001.59 1001.73 1001.75 1001.74 1001.31 1000.85 1000.53 1000.41 1000.75 1000.83 1000.41 999.91 998.85 998.55 998.01 997.69 997.76 996.91 997.57 997.78 997.41 996.93 996.47 995.44 994.98 993.89 991.70 990.95 990.50 990.32 990.88 991.80 992.53 993.21
1018.26 1017.26 1016.88 1014.89 1012.62 1012.19 1011.83 1010.87 1008.83 1005.48 1001.87 1001.98 1002.39 1002.70 1002.35 1001.91 1001.41 1000.87 1000.16 999.40 999.22 999.47 999.39 999.16 998.16 997.59 997.61 998.35 997.52 997.32 997.96 997.53 996.45 995.25 994.19 993.81 993.00 991.13 989.99 989.25 989.33 989.89 990.78 991.38 992.09
1018.12 1016.41 1014.90 1013.67 1012.80 1012.57 1011.56 1010.09 1007.50 1004.66 1003.38 1003.39 1003.54 1004.12 1003.63 1002.81 1001.22 1000.26 1000.44 1000.15 999.62 999.37 999.39 998.88 998.04 998.49 998.09 997.97 997.58 996.52 996.95 996.33 995.18 993.99 992.84 992.27 990.65 989.59 990.15 989.92 990.03 989.77 990.39 990.88 991.15
1017.93 1014.18 1012.87 1012.39 1012.67 1012.46 1011.31 1008.57 1006.07 1005.76 1005.83 1005.69 1005.43 1004.96 1003.53 1002.56 1002.76 1002.26 1001.31 1000.21 999.80 999.99 1001.04 1000.41 998.52 997.97 998.24 997.36 997.67 996.57 995.75 995.62 994.56 993.26 992.52 989.93 989.99 989.39 989.20 989.51 990.03 990.88 990.75 991.18 991.89
1017.60 1014.08 1011.90 1012.40 1012.53 1011.97 1010.35 1008.30 1007.03 1007.41 1007.63 1007.50 1006.73 1006.29 1004.98 1004.22 1003.56 1003.05 1002.42 1001.15 1001.05 1002.35 1002.54 1001.98 1000.87 998.36 999.16 999.47 998.18 996.79 997.05 996.27 995.14 994.30 992.74 989.31 988.91 988.07 989.08 989.85 990.59 990.93 991.34 992.03 992.60
1016.69 1012.93 1011.93 1012.19 1011.89 1010.92 1009.58 1008.65 1008.93 1009.33 1009.41 1008.98 1008.23 1007.52 1006.65 1005.53 1004.65 1003.49 1002.21 1001.57 1002.13 1003.44 1003.59 1003.35 1002.71 999.15 997.71 998.84 997.68 996.23 997.07 996.71 995.22 993.63 991.71 990.27 988.96 988.20 988.85 989.26 990.59 991.44 992.55 994.00 994.16
1016.12 1012.71 1011.35 1012.32 1010.93 1009.42 1009.64 1010.26 1010.16 1009.35 1009.33 1009.15 1008.88 1008.84 1008.60 1007.59 1005.79 1004.89 1003.53 1003.32 1003.79 1004.38 1003.73 1004.59 1003.63 1001.56 999.40 997.65 996.31 995.39 994.93 996.50 995.78 994.49 992.65 991.97 992.41 991.39 990.49 991.22 991.60 993.73 995.47 996.10 996.77
1016.14 1012.78 1011.25 1011.42 1010.63 1010.61 1010.85 1010.53 1010.05 1009.49 1009.59 1009.59 1009.66 1009.37 1008.90 1008.44 1006.55 1005.06 1004.17 1003.86 1004.06 1005.14 1005.06 1005.41 1003.94 1002.12 999.85 997.97 997.90 996.17 995.32 994.92 995.03 993.71 993.34 992.06 993.01 993.10 992.89 993.24 994.23 995.74 997.08 997.91 998.31
1016.49 1013.37 1011.88 1011.31 1011.03 1011.73 1011.02 1010.55 1009.80 1009.72 1010.12 1010.28 1009.60 1009.31 1009.75 1008.30 1006.51 1005.33 1003.86 1004.32 1004.51 1004.67 1005.10 1005.12 1004.77 1003.19 1001.09 999.13 999.04 997.61 995.70 995.48 994.13 993.75 994.17 993.27 992.77 994.23 994.35 995.04 996.48 997.27 998.19 998.75 998.96
1016.53 1014.73 1014.41 1013.07 1012.54 1012.14 1011.58 1010.76 1010.13 1009.92 1010.43 1010.27 1009.61 1009.31 1009.59 1008.43 1006.47 1004.63 1004.39 1004.22 1003.62 1003.90 1004.99 1005.61 1004.75 1003.22 1001.54 999.83 999.08 998.13 996.30 994.57 994.38 993.75 993.71 993.25 993.67 995.14 995.43 996.64 997.67 998.62 999.27 999.41 999.79
1017.63 1017.39 1016.34 1015.31 1013.71 1012.24 1011.11 1010.77 1011.05 1011.05 1011.36 1010.61 1010.29 1009.82 1009.13 1008.37 1007.41 1005.41 1004.58 1004.31 1003.78 1003.38 1003.94 1005.07 1004.61 1003.50 1000.41 998.61 997.76 996.61 995.51 993.67 993.73 993.19 993.31 992.65 994.36 996.61 997.19 998.45 998.90 999.56 1000.02 1000.09 1000.71
1019.23 1018.58 1017.81 1015.86 1013.65 1012.40 1011.66 1011.93 1011.99 1012.47 1011.63 1010.92 1010.32 1009.75 1008.72 1007.57 1006.68 1005.70 1005.04 1004.32 1003.93 1003.70 1003.87 1004.84 1004.55 1003.50 1000.48 997.77 997.35 996.36 993.53 992.52 992.65 992.83 992.44 992.34 993.92 996.86 998.00 998.61 999.73 1000.14 1000.89 1001.39 1001.78
Wind_Speed
17 16 16 16 16 17 17 18 19 18 18 18 18 17 17 19 22 24 26 17 3 3 8 16 13 15 19 21 22 14 18 22 29 27 22 17 11 13 14 16 8 10 10 11 10
17 17 16 16 15 15 15 16 17 18 18 18 17 17 18 17 23 27 20 11 8 6 13 18 16 17 18 19 21 19 17 29 23 24 27 18 14 14 9 15 12 12 6 4 11
18 18 18 17 17 17 17 17 17 17 18 18 18 17 18 19 21 2 13 9 2 10 20 18 22 19 22 22 24 23 27 22 24 25 25 15 13 14 15 17 17 18 15 14 12
19 20 20 20 20 19 18 18 18 18 18 17 16 16 17 16 9 9 8 3 6 16 18 21 21 24 23 25 23 29 27 23 28 21 16 17 18 19 16 16 13 11 11 6 8
21 22 22 23 23 22 20 20 19 19 20 19 17 14 14 11 18 7 5 8 10 11 17 21 22 23 28 24 26 29 26 25 24 25 22 15 24 24 21 16 13 9 11 12 10
21 23 24 24 24 23 22 21 20 19 21 19 16 11 13 20 1 1 6 10 15 14 16 17 17 20 21 27 29 22 28 26 26 23 24 22 22 22 22 17 18 18 18 15 16
21 22 23 24 24 24 24 24 22 21 20 19 13 10 13 25 6 4 8 12 13 16 17 15 17 15 16 24 22 24 27 24 22 26 26 20 28 32 24 21 22 21 20 20 19
21 21 23 24 25 25 25 25 26 25 21 13 7 12 12 5 7 9 13 14 10 12 13 16 13 20 21 18 21 15 23 26 27 24 25 22 32 26 25 25 27 25 21 21 22
22 22 23 25 26 26 26 26 25 21 10 5 11 13 12 4 10 14 14 14 16 14 10 9 12 17 17 21 20 26 22 29 27 23 23 24 35 18 27 26 29 25 22 20 20
23 23 24 25 26 26 26 29 16 8 9 11 9 7 11 8 5 6 6 10 10 15 15 15 11 16 20 19 23 24 27 26 25 22 27 27 29 21 11 21 15 19 24 25 23
25 24 24 25 25 25 19 13 7 10 13 13 12 17 7 7 8 12 9 10 11 13 19 17 17 24 26 26 27 25 28 27 23 24 22 28 25 21 22 17 18 17 20 21 24
28 28 27 27 27 23 11 9 9 9 17 24 29 30 23 15 13 14 17 12 19 19 21 19 23 24 24 24 26 27 28 29 19 13 21 22 22 23 25 26 23 20 19 21 20
26 28 29 31 26 13 6 6 8 11 11 17 9 10 10 13 15 16 16 18 19 21 21 24 23 21 23 24 26 26 27 26 27 21 16 13 22 24 25 21 23 23 23 22 20
27 27 27 31 12 9 2 6 9 8 10 14 9 9 9 8 11 13 15 18 17 22 22 21 21 24 23 21 24 26 26 25 25 23 18 27 19 23 24 24 24 23 24 24 24
27 28 28 17 13 8 9 9 9 9 10 7 12 7 1 9 13 15 13 16 20 20 17 21 21 24 26 26 23 25 21 21 23 24 22 24 18 18 21 26 28 27 25 23 23
29 29 27 2 12 5 9 9 8 10 13 4 4 4 9 14 13 15 17 21 19 22 24 28 26 26 17 26 24 17 22 21 21 19 21 25 22 20 21 23 20 20 27 25 24
33 32 23 10 9 11 9 10 10 12 11 4 9 13 18 21 25 25 24 22 21 21 21 24 28 30 16 18 25 22 15 12 14 17 19 26 26 21 15 19 21 22 21 20 23
35 35 4 8 8 9 9 12 14 15 19 25 18 21 24 27 26 12 8 17 18 23 19 21 25 20 14 26 19 28 24 12 15 17 19 26 23 26 28 7 7 7 16 20 20
35 9 6 2 7 8 11 11 15 21 22 20 21 24 22 20 9 17 19 21 20 15 7 9 22 15 20 18 32 22 20 28 26 4 10 17 22 19 13 13 15 12 11 7 10
12 14 8 4 7 10 11 14 19 22 27 25 29 25 29 26 19 16 12 13 17 10 5 5 12 11 5 9 30 17 22 21 16 10 13 15 24 16 20 15 13 20 19 7 4
9 8 9 8 10 10 9 16 25 21 22 24 26 30 28 27 27 26 25 17 11 4 4 3 9 10 7 17 22 16 10 14 14 18 12 13 9 8 16 16 20 14 14 9 9
8 8 9 10 12 7 9 18 18 20 18 19 20 15 13 22 21 22 21 16 15 12 9 4 5 5 14 26 21 26 23 24 12 11 16 15 6 14 11 9 13 15 10 9 7
9 12 5 5 8 11 15 18 16 14 15 13 15 17 16 8 7 11 8 2 8 15 3 4 1 5 10 10 7 10 17 22 27 15 17 15 8 5 7 8 4 13 10 9 12
8 8 8 9 7 16 16 16 17 9 14 18 21 12 9 14 14 10 17 7 10 21 9 2 4 9 12 16 9 11 18 23 24 13 14 13 7 16 10 12 9 10 6 12 14
6 6 8 9 13 15 15 15 18 16 17 17 14 15 16 9 20 15 18 15 15 4 5 3 7 14 20 25 21 22 25 24 22 20 17 18 14 11 6 13 13 12 7 15 11
7 11 9 15 13 18 14 12 18 21 21 17 12 23 20 18 16 23 20 17 12 13 1 2 6 15 23 21 19 20 19 24 24 20 19 21 6 7 2 13 13 14 11 17 16
7 7 9 10 12 13 12 19 18 19 13 21 20 21 21 21 19 23 22 23 21 20 17 9 4 4 10 9 10 10 25 26 25 21 25 18 9 20 17 18 15 16 16 17 16
Wind_Direction
356 353 349 345 341 336 331 327 326 324 320 318 314 313 310 311 303 281 268 245 276 17 299 274 232 226 230 235 230 229 251 239 243 248 245 260 189 227 252 253 190 200 266 76 131
353 349 345 342 337 329 322 320 320 315 313 312 313 315 314 312 298 283 274 225 158 177 261 227 232 219 217 227 224 222 233 242 247 253 259 248 187 231 206 227 200 199 159 163 160
347 343 341 337 331 326 322 319 315 310 308 308 311 314 314 306 293 207 39 91 148 227 230 246 248 224 232 225 222 218 240 251 241 257 265 282 243 235 199 224 218 198 190 164 192
344 341 337 334 330 326 322 318 314 312 309 305 303 303 307 295 285 100 93 10 253 241 224 225 229 240 232 234 226 232 239 243 261 261 240 265 267 222 229 248 204 209 141 189 200
343 341 338 334 330 326 320 317 314 312 311 308 300 294 289 241 251 161 155 195 215 207 213 214 222 224 238 240 247 237 248 247 251 255 260 235 248 255 238 241 254 245 173 209 216
340 339 336 332 328 323 319 315 311 310 308 301 291 279 255 265 16 324 260 232 239 217 221 231 229 231 243 236 250 247 237 248 249 243 244 243 240 248 244 251 242 239 226 227 232
337 333 329 326 322 318 313 310 308 306 303 295 269 235 266 253 320 266 235 251 229 232 238 227 245 241 244 254 250 262 259 249 241 244 245 242 247 239 241 232 242 239 236 244 242
331 328 324 321 318 314 309 307 307 306 301 281 221 211 252 266 294 236 245 246 234 268 262 272 267 257 251 261 246 245 255 247 242 230 239 238 251 238 233 238 234 232 231 232 229
330 325 320 318 316 313 307 302 298 291 269 212 192 221 265 133 227 225 222 226 221 221 230 250 250 250 236 239 243 237 242 233 245 237 217 214 245 247 256 236 226 228 233 232 222
330 325 321 318 316 312 309 293 283 260 223 206 275 214 228 255 158 224 214 232 221 208 218 221 232 228 227 229 229 235 233 240 256 231 233 217 232 246 262 248 220 222 225 231 227
330 325 321 319 319 314 310 280 217 189 210 248 258 242 284 247 216 222 178 220 225 215 215 198 219 227 225 220 248 251 268 254 236 228 251 226 238 236 227 228 230 218 229 227 226
331 328 327 322 322 314 284 344 13 315 290 263 256 261 269 281 260 251 234 215 216 227 219 237 228 244 245 240 236 241 255 262 259 257 243 239 245 235 232 217 217 211 218 223 225
330 327 326 321 320 288 320 356 313 318 270 294 222 258 241 204 235 251 202 214 246 226 241 247 246 230 231 252 244 242 242 246 258 249 227 261 258 247 239 241 230 225 217 227 232
328 327 324 322 286 334 269 338 294 339 275 260 180 193 171 228 227 224 194 230 230 244 255 266 262 249 261 237 243 243 239 243 255 248 237 205 248 238 231 233 228 226 227 219 224
327 327 325 323 308 325 342 316 324 264 279 116 123 82 182 250 334 238 194 226 249 270 235 256 252 247 246 238 233 245 243 244 237 252 258 250 252 252 238 225 217 221 220 222 218
327 326 329 254 243 345 304 313 255 240 261 78 28 265 259 262 272 291 251 211 246 267 270 271 269 268 250 282 245 232 238 241 239 229 234 238 242 242 238 228 230 216 212 214 216
326 321 319 306 330 328 314 274 259 244 333 33 328 311 295 293 291 285 276 263 244 238 250 262 257 250 245 228 259 209 209 228 225 220 234 227 228 238 262 226 224 214 209 211 209
325 312 220 280 322 320 288 268 267 280 307 340 345 315 293 286 279 290 267 262 264 276 279 262 260 234 242 250 240 210 210 214 208 220 226 222 226 226 232 204 311 266 207 216 210
317 303 261 103 313 304 280 266 302 330 338 324 303 294 285 300 284 289 283 289 285 321 278 274 254 223 231 231 228 213 205 217 239 270 298 223 206 236 214 208 203 214 217 205 229
312 291 258 12 330 283 263 272 323 342 335 324 305 300 293 287 296 289 276 287 293 289 349 313 286 233 295 305 273 186 233 215 240 218 227 229 200 205 192 194 212 208 214 150 254
269 298 85 325 307 258 281 334 335 329 310 300 301 293 286 288 288 277 280 288 310 308 292 148 264 296 218 194 216 191 193 257 245 247 253 256 218 343 162 194 185 204 124 139 195
292 299 45 337 289 2 327 336 313 322 326 321 313 290 294 300 293 295 275 264 13 341 311 86 275 284 298 290 317 210 222 183 241 225 242 270 18 338 66 108 91 83 99 110 117
297 294 162 261 331 334 329 326 334 331 335 332 315 324 313 278 265 246 245 350 339 284 8 5 281 299 306 221 265 268 232 241 215 229 229 243 165 335 105 106 81 116 115 143 148
288 307 347 304 354 342 332 321 317 349 345 329 310 321 346 314 314 296 299 8 342 290 97 325 257 257 278 297 340 250 232 221 236 217 225 242 183 168 154 134 133 122 150 160 143
302 340 340 303 331 308 300 310 316 338 328 330 308 327 337 304 317 305 331 292 308 94 91 51 261 268 279 282 269 245 256 212 229 222 231 246 299 169 110 139 133 137 158 142 129
328 341 337 300 301 290 298 343 340 327 335 310 325 314 314 302 295 300 308 307 296 287 282 181 274 306 293 283 254 251 253 204 218 228 227 246 197 331 272 133 128 127 140 121 122
10 304 297 289 295 310 336 332 333 332 301 311 311 307 299 304 310 299 290 279 269 275 281 281 279 303 276 215 214 247 234 197 203 207 226 234 126 170 152 138 137 130 129 124 123